This is the latest recevied weather packets stored in our database for station/object KD8OZS. If no packets are shown the sender has not sent any weather packets the latest 1 day(s).
| Time | Temp. | Humidity | Pressure | Rain* | Wind** | Luminosity | Snow |
|---|---|---|---|---|---|---|---|
| 1778084440 | 13.33° C | 58% | 1004.5 hPa | 0 mm | - | 561 W/m² | - |
| 1778083834 | 12.78° C | 64% | 1004.2 hPa | 0 mm | - | 100 W/m² | - |
| 1778081818 | 12.22° C | 68% | 1004.1 hPa | 0 mm | - | 386 W/m² | - |
| 1778077882 | 9.44° C | 79% | 1003.5 hPa | 0 mm | - | 265 W/m² | - |
| 1778077278 | 9.44° C | 82% | 1003.4 hPa | 0 mm | - | 205 W/m² | - |
| 1778073642 | 7.78° C | 92% | 1003 hPa | 0 mm | - | 90 W/m² | - |
| 1778073339 | 7.78° C | 92% | 1003.1 hPa | 0 mm | - | 90 W/m² | - |
| 1778073035 | 7.78° C | 92% | 1003 hPa | 0 mm | - | 84 W/m² | - |
| 1778072128 | 7.78° C | 93% | 1002.4 hPa | 0 mm | - | 76 W/m² | - |
| 1778071523 | 7.22° C | 94% | 1002.3 hPa | 0 mm | - | 108 W/m² | - |
| 1778070011 | 6.67° C | 97% | 1002 hPa | 0 mm | - | 40 W/m² | - |
| 1778069708 | 6.67° C | 97% | 1001.7 hPa | 0 mm | - | 65 W/m² | - |
| 1778068497 | 6.67° C | 97% | 1001.3 hPa | 0 mm | - | 58 W/m² | - |
| 1778067591 | 6.67° C | 98% | 1001.7 hPa | 0 mm | - | 18 W/m² | - |
| 1778065774 | 6.67° C | 98% | 1001.5 hPa | 0 mm | - | 6 W/m² | - |
| 1778064562 | 6.67° C | 98% | 1000.9 hPa | 0 mm | - | 0 W/m² | - |
| 1778064260 | 6.67° C | 98% | 1001.4 hPa | 0 mm | - | 0 W/m² | - |
| 1778063958 | 6.67° C | 98% | 1001.5 hPa | 0 mm | - | 0 W/m² | - |
| 1778063655 | 6.67° C | 98% | 1001 hPa | 0 mm | - | 0 W/m² | - |
| 1778063352 | 6.67° C | 98% | 1000.3 hPa | 0 mm | - | 0 W/m² | - |
| 1778062747 | 6.67° C | 98% | 1000.3 hPa | 0 mm | - | 0 W/m² | - |
| 1778062443 | 6.67° C | 98% | 1000 hPa | 0 mm | - | 0 W/m² | - |
| 1778061839 | 6.67° C | 98% | 999.5 hPa | 0 mm | - | 0 W/m² | - |
| 1778061235 | 6.67° C | 98% | 999.9 hPa | 0 mm | - | 0 W/m² | - |
| 1778060327 | 6.67° C | 98% | 999.6 hPa | 1.78 mm | - | 0 W/m² | - |
* Rain latest hour (hover to see other rain measurements)
** Current wind speed in m/s (hover to see current wind gust speed)